Time,TemperatureF,DewpointF,PressureIn,WindDirection,WindDirectionDegrees,WindSpeedMPH,WindSpeedGustMPH,Humidity,HourlyPrecipIn,Conditions,Clouds,dailyrainin,SoftwareType,DateUTC
2013-01-27 00:14:00,43.4,38.0,30.06,NNW,342,6.0,-999.0,82,-99.99,,,0.00,weatherlink.com 1.10,2013-01-27 08:14:00,
2013-01-27 00:29:00,43.3,38.0,30.06,NW,308,6.0,-999.0,82,-99.99,,,0.00,weatherlink.com 1.10,2013-01-27 08:29:00,
2013-01-27 00:44:00,43.1,38.0,30.06,NW,311,5.0,-999.0,83,-99.99,,,0.00,weatherlink.com 1.10,2013-01-27 08:44:00,
2013-01-27 00:59:00,43.0,38.0,30.06,North,9,5.0,-999.0,81,-99.99,,,0.00,weatherlink.com 1.10,2013-01-27 08:59:00,
2013-01-27 01:14:00,43.0,38.0,30.05,NNW,346,7.0,-999.0,81,-99.99,,,0.00,weatherlink.com 1.10,2013-01-27 09:14:00,
2013-01-27 01:29:00,42.9,38.0,30.05,NNW,341,4.0,-999.0,82,-99.99,,,0.00,weatherlink.com 1.10,2013-01-27 09:29:00,
2013-01-27 01:44:00,42.9,38.0,30.06,North,5,10.0,-999.0,82,-99.99,,,0.00,weatherlink.com 1.10,2013-01-27 09:44:00,
2013-01-27 01:59:00,42.6,38.0,30.06,North,351,4.0,-999.0,82,-99.99,,,0.00,weatherlink.com 1.10,2013-01-27 09:59:00,
2013-01-27 02:14:00,42.4,37.0,30.06,North,349,5.0,-999.0,82,-99.99,,,0.00,weatherlink.com 1.10,2013-01-27 10:14:00,
2013-01-27 02:29:00,42.2,37.0,30.07,NW,314,6.0,-999.0,82,-99.99,,,0.00,weatherlink.com 1.10,2013-01-27 10:29:00,
2013-01-27 02:44:00,41.9,37.0,30.07,NW,304,5.0,-999.0,81,-99.99,,,0.00,weatherlink.com 1.10,2013-01-27 10:44:00,
2013-01-27 02:59:00,41.7,36.0,30.08,NW,324,4.0,-999.0,80,-99.99,,,0.00,weatherlink.com 1.10,2013-01-27 10:59:00,
2013-01-27 03:14:00,41.4,36.0,30.08,NNW,347,4.0,-999.0,80,-99.99,,,0.00,weatherlink.com 1.10,2013-01-27 11:14:00,
2013-01-27 03:29:00,41.2,36.0,30.08,NNW,348,7.0,-999.0,80,-99.99,,,0.00,weatherlink.com 1.10,2013-01-27 11:29:00,
2013-01-27 03:44:00,41.5,36.0,30.08,NW,305,6.0,-999.0,80,-99.99,,,0.00,weatherlink.com 1.10,2013-01-27 11:44:00,
2013-01-27 03:59:00,41.5,36.0,30.08,NW,316,5.0,-999.0,80,-99.99,,,0.00,weatherlink.com 1.10,2013-01-27 11:59:00,
2013-01-27 04:14:00,41.7,36.0,30.09,NNW,336,5.0,-999.0,80,-99.99,,,0.00,weatherlink.com 1.10,2013-01-27 12:14:00,
2013-01-27 04:29:00,41.7,36.0,30.08,NNW,337,6.0,-999.0,79,-99.99,,,0.00,weatherlink.com 1.10,2013-01-27 12:29:00,
2013-01-27 04:44:00,41.9,36.0,30.08,NNW,335,10.0,-999.0,79,-99.99,,,0.00,weatherlink.com 1.10,2013-01-27 12:44:00,
2013-01-27 04:59:00,42.0,36.0,30.08,NNW,343,5.0,-999.0,80,-99.99,,,0.00,weatherlink.com 1.10,2013-01-27 12:59:00,
2013-01-27 05:14:00,42.2,36.0,30.08,NNW,348,5.0,-999.0,80,-99.99,,,0.00,weatherlink.com 1.10,2013-01-27 13:14:00,
2013-01-27 05:29:00,42.2,36.0,30.08,North,355,6.0,-999.0,80,-99.99,,,0.00,weatherlink.com 1.10,2013-01-27 13:29:00,
2013-01-27 05:44:00,42.0,36.0,30.09,NNE,32,6.0,-999.0,79,-99.99,,,0.00,weatherlink.com 1.10,2013-01-27 13:44:00,
2013-01-27 05:59:00,42.0,36.0,30.09,NW,314,7.0,-999.0,78,-99.99,,,0.00,weatherlink.com 1.10,2013-01-27 13:59:00,
2013-01-27 06:14:00,41.9,36.0,30.10,NW,313,7.0,-999.0,78,-99.99,,,0.00,weatherlink.com 1.10,2013-01-27 14:14:00,
2013-01-27 06:29:00,41.9,36.0,30.10,NNW,344,5.0,-999.0,78,-99.99,,,0.00,weatherlink.com 1.10,2013-01-27 14:29:00,
2013-01-27 06:44:00,42.0,36.0,30.11,NNW,336,10.0,-999.0,78,-99.99,,,0.00,weatherlink.com 1.10,2013-01-27 14:44:00,
2013-01-27 06:59:00,41.9,36.0,30.11,NNW,329,4.0,-999.0,78,-99.99,,,0.00,weatherlink.com 1.10,2013-01-27 14:59:00,
2013-01-27 07:14:00,41.9,35.0,30.12,NNE,12,3.0,-999.0,77,-99.99,,,0.00,weatherlink.com 1.10,2013-01-27 15:14:00,
2013-01-27 07:29:00,42.0,35.0,30.12,NW,323,4.0,-999.0,77,-99.99,,,0.00,weatherlink.com 1.10,2013-01-27 15:29:00,
2013-01-27 07:44:00,42.1,35.0,30.12,North,349,5.0,-999.0,76,-99.99,,,0.00,weatherlink.com 1.10,2013-01-27 15:44:00,
2013-01-27 07:59:00,42.3,35.0,30.13,NNW,330,2.0,-999.0,76,-99.99,,,0.00,weatherlink.com 1.10,2013-01-27 15:59:00,
2013-01-27 08:14:00,43.1,36.0,30.13,NNW,340,7.0,-999.0,75,-99.99,,,0.00,weatherlink.com 1.10,2013-01-27 16:14:00,
2013-01-27 08:29:00,43.8,36.0,30.14,North,355,9.0,-999.0,74,-99.99,,,0.00,weatherlink.com 1.10,2013-01-27 16:29:00,
2013-01-27 08:44:00,44.3,36.0,30.14,WNW,299,3.0,-999.0,73,-99.99,,,0.00,weatherlink.com 1.10,2013-01-27 16:44:00,
2013-01-27 08:59:00,44.7,37.0,30.14,NNW,331,1.0,-999.0,74,-99.99,,,0.00,weatherlink.com 1.10,2013-01-27 16:59:00,
2013-01-27 09:14:00,45.5,37.0,30.15,WNW,296,7.0,-999.0,73,-99.99,,,0.00,weatherlink.com 1.10,2013-01-27 17:14:00,
2013-01-27 09:29:00,46.2,38.0,30.15,West,279,7.0,-999.0,72,-99.99,,,0.00,weatherlink.com 1.10,2013-01-27 17:29:00,
2013-01-27 09:44:00,47.2,39.0,30.16,WNW,292,12.0,-999.0,72,-99.99,,,0.00,weatherlink.com 1.10,2013-01-27 17:44:00,
2013-01-27 09:59:00,47.5,39.0,30.16,North,360,0.0,-999.0,72,-99.99,,,0.00,weatherlink.com 1.10,2013-01-27 17:59:00,
2013-01-27 10:14:00,48.5,39.0,30.17,NW,307,11.0,-999.0,71,-99.99,,,0.00,weatherlink.com 1.10,2013-01-27 18:14:00,
2013-01-27 10:29:00,49.0,39.0,30.17,West,276,17.0,-999.0,69,-99.99,,,0.00,weatherlink.com 1.10,2013-01-27 18:29:00,
2013-01-27 10:44:00,49.2,39.0,30.18,WNW,293,13.0,-999.0,69,-99.99,,,0.00,weatherlink.com 1.10,2013-01-27 18:44:00,
2013-01-27 10:59:00,49.4,40.0,30.18,WNW,287,13.0,-999.0,70,-99.99,,,0.00,weatherlink.com 1.10,2013-01-27 18:59:00,
2013-01-27 11:14:00,50.0,41.0,30.18,NW,309,14.0,-999.0,70,-99.99,,,0.00,weatherlink.com 1.10,2013-01-27 19:14:00,
2013-01-27 11:29:00,49.7,41.0,30.18,NW,315,12.0,-999.0,71,-99.99,,,0.00,weatherlink.com 1.10,2013-01-27 19:29:00,
2013-01-27 11:44:00,49.8,41.0,30.17,West,277,18.0,-999.0,72,-99.99,,,0.00,weatherlink.com 1.10,2013-01-27 19:44:00,
2013-01-27 11:59:00,49.7,41.0,30.17,NW,304,9.0,-999.0,73,-99.99,,,0.00,weatherlink.com 1.10,2013-01-27 19:59:00,
2013-01-27 12:14:00,49.6,41.0,30.16,WNW,288,16.0,-999.0,73,-99.99,,,0.00,weatherlink.com 1.10,2013-01-27 20:14:00,
2013-01-27 12:29:00,49.8,42.0,30.16,WNW,286,12.0,-999.0,74,-99.99,,,0.00,weatherlink.com 1.10,2013-01-27 20:29:00,
2013-01-27 12:44:00,50.2,43.0,30.15,WNW,293,13.0,-999.0,75,-99.99,,,0.00,weatherlink.com 1.10,2013-01-27 20:44:00,
2013-01-27 12:59:00,50.1,42.0,30.15,West,277,17.0,-999.0,74,-99.99,,,0.00,weatherlink.com 1.10,2013-01-27 20:59:00,
2013-01-27 13:14:00,50.0,41.0,30.15,West,269,23.0,-999.0,71,-99.99,,,0.00,weatherlink.com 1.10,2013-01-27 21:14:00,
2013-01-27 13:29:00,50.1,41.0,30.14,West,267,17.0,-999.0,72,-99.99,,,0.00,weatherlink.com 1.10,2013-01-27 21:29:00,
2013-01-27 13:44:00,50.3,41.0,30.14,West,278,21.0,-999.0,70,-99.99,,,0.00,weatherlink.com 1.10,2013-01-27 21:44:00,
2013-01-27 13:59:00,50.3,41.0,30.14,WSW,247,16.0,-999.0,70,-99.99,,,0.00,weatherlink.com 1.10,2013-01-27 21:59:00,
2013-01-27 14:14:00,50.1,41.0,30.14,WSW,246,17.0,-999.0,70,-99.99,,,0.00,weatherlink.com 1.10,2013-01-27 22:14:00,
2013-01-27 14:29:00,50.2,41.0,30.14,WSW,242,18.0,-999.0,71,-99.99,,,0.00,weatherlink.com 1.10,2013-01-27 22:29:00,
2013-01-27 14:44:00,50.4,41.0,30.14,West,265,24.0,-999.0,71,-99.99,,,0.00,weatherlink.com 1.10,2013-01-27 22:44:00,
2013-01-27 14:59:00,50.0,42.0,30.14,SW,227,24.0,-999.0,73,-99.99,,,0.00,weatherlink.com 1.10,2013-01-27 22:59:00,
2013-01-27 15:14:00,50.3,42.0,30.14,SW,236,13.0,-999.0,72,-99.99,,,0.00,weatherlink.com 1.10,2013-01-27 23:14:00,
2013-01-27 15:29:00,50.2,42.0,30.13,WSW,254,19.0,-999.0,74,-99.99,,,0.00,weatherlink.com 1.10,2013-01-27 23:29:00,
2013-01-27 15:44:00,49.9,42.0,30.13,SW,217,20.0,-999.0,74,-99.99,,,0.00,weatherlink.com 1.10,2013-01-27 23:44:00,
2013-01-27 15:59:00,49.9,41.0,30.13,SW,229,17.0,-999.0,72,-99.99,,,0.00,weatherlink.com 1.10,2013-01-27 23:59:00,
2013-01-27 16:14:00,49.9,41.0,30.13,SW,234,18.0,-999.0,72,-99.99,,,0.00,weatherlink.com 1.10,2013-01-28 00:14:00,
2013-01-27 16:29:00,49.2,41.0,30.13,NNE,31,10.0,-999.0,73,-99.99,,,0.00,weatherlink.com 1.10,2013-01-28 00:29:00,
2013-01-27 16:44:00,48.6,41.0,30.13,SW,221,15.0,-999.0,74,-99.99,,,0.00,weatherlink.com 1.10,2013-01-28 00:44:00,
2013-01-27 16:59:00,48.6,41.0,30.13,WSW,248,20.0,-999.0,74,-99.99,,,0.00,weatherlink.com 1.10,2013-01-28 00:59:00,
2013-01-27 17:14:00,47.8,41.0,30.13,West,268,13.0,-999.0,76,-99.99,,,0.00,weatherlink.com 1.10,2013-01-28 01:14:00,
2013-01-27 17:29:00,47.2,41.0,30.13,WNW,286,14.0,-999.0,78,-99.99,,,0.00,weatherlink.com 1.10,2013-01-28 01:29:00,
2013-01-27 17:44:00,46.7,41.0,30.14,SW,233,17.0,-999.0,80,-99.99,,,0.00,weatherlink.com 1.10,2013-01-28 01:44:00,
2013-01-27 17:59:00,46.5,41.0,30.14,WSW,251,13.0,-999.0,80,-99.99,,,0.00,weatherlink.com 1.10,2013-01-28 01:59:00,
2013-01-27 18:14:00,46.6,41.0,30.15,WSW,253,18.0,-999.0,81,-99.99,,,0.00,weatherlink.com 1.10,2013-01-28 02:14:00,
2013-01-27 18:29:00,46.8,41.0,30.15,SW,231,15.0,-999.0,81,-99.99,,,0.00,weatherlink.com 1.10,2013-01-28 02:29:00,
2013-01-27 18:44:00,46.7,41.0,30.15,SW,222,18.0,-999.0,81,-99.99,,,0.00,weatherlink.com 1.10,2013-01-28 02:44:00,
2013-01-27 18:59:00,46.4,41.0,30.15,WSW,248,8.0,-999.0,81,-99.99,,,0.00,weatherlink.com 1.10,2013-01-28 02:59:00,
2013-01-27 19:14:00,45.7,40.0,30.15,WNW,294,6.0,-999.0,81,-99.99,,,0.00,weatherlink.com 1.10,2013-01-28 03:14:00,
2013-01-27 19:29:00,44.7,40.0,30.16,WSW,241,9.0,-999.0,82,-99.99,,,0.00,weatherlink.com 1.10,2013-01-28 03:29:00,
2013-01-27 19:44:00,44.1,39.0,30.15,WNW,300,4.0,-999.0,83,-99.99,,,0.00,weatherlink.com 1.10,2013-01-28 03:44:00,
2013-01-27 19:59:00,43.7,39.0,30.15,WNW,296,5.0,-999.0,83,-99.99,,,0.00,weatherlink.com 1.10,2013-01-28 03:59:00,
2013-01-27 20:14:00,43.5,39.0,30.14,WNW,297,4.0,-999.0,84,-99.99,,,0.00,weatherlink.com 1.10,2013-01-28 04:14:00,
2013-01-27 20:29:00,43.4,39.0,30.15,WSW,239,4.0,-999.0,85,-99.99,,,0.00,weatherlink.com 1.10,2013-01-28 04:29:00,
2013-01-27 20:44:00,43.4,39.0,30.15,North,349,5.0,-999.0,85,-99.99,,,0.00,weatherlink.com 1.10,2013-01-28 04:44:00,
2013-01-27 20:59:00,43.4,39.0,30.15,WNW,300,7.0,-999.0,85,-99.99,,,0.00,weatherlink.com 1.10,2013-01-28 04:59:00,
2013-01-27 21:14:00,43.2,39.0,30.15,West,261,6.0,-999.0,85,-99.99,,,0.00,weatherlink.com 1.10,2013-01-28 05:14:00,
2013-01-27 21:29:00,43.3,39.0,30.15,WNW,286,7.0,-999.0,85,-99.99,,,0.00,weatherlink.com 1.10,2013-01-28 05:29:00,
2013-01-27 21:44:00,43.4,39.0,30.16,WNW,301,5.0,-999.0,85,-99.99,,,0.00,weatherlink.com 1.10,2013-01-28 05:44:00,
2013-01-27 21:59:00,43.3,39.0,30.16,West,275,4.0,-999.0,85,-99.99,,,0.00,weatherlink.com 1.10,2013-01-28 05:59:00,
2013-01-27 22:14:00,43.2,39.0,30.16,West,278,4.0,-999.0,85,-99.99,,,0.00,weatherlink.com 1.10,2013-01-28 06:14:00,
2013-01-27 22:29:00,43.3,39.0,30.16,WNW,302,6.0,-999.0,85,-99.99,,,0.00,weatherlink.com 1.10,2013-01-28 06:29:00,
2013-01-27 22:44:00,43.2,39.0,30.17,WNW,302,6.0,-999.0,85,-99.99,,,0.00,weatherlink.com 1.10,2013-01-28 06:44:00,
2013-01-27 22:59:00,43.3,39.0,30.17,West,277,3.0,-999.0,85,-99.99,,,0.00,weatherlink.com 1.10,2013-01-28 06:59:00,
2013-01-27 23:14:00,43.2,39.0,30.18,West,279,7.0,-999.0,85,-99.99,,,0.00,weatherlink.com 1.10,2013-01-28 07:14:00,
2013-01-27 23:29:00,43.5,39.0,30.18,NNW,329,5.0,-999.0,85,-99.99,,,0.00,weatherlink.com 1.10,2013-01-28 07:29:00,
2013-01-27 23:44:00,44.1,40.0,30.17,WSW,252,3.0,-999.0,84,-99.99,,,0.00,weatherlink.com 1.10,2013-01-28 07:44:00,
2013-01-27 23:59:00,44.2,40.0,30.17,West,277,3.0,-999.0,84,-99.99,,,0.00,weatherlink.com 1.10,2013-01-28 07:59:00,